Date String (YYYY-MM-DD hh:mm:ss) UTC,Instrument flags,absolute air pressure of the measurement (hPa),sample flow rate (lpm),inlet stack bypass flow (lpm),air temperature of the measurement (°C),ambient temperature measured by the external sensor (°C),aerosol sample conditioner tube jacket temperature (°C),OPC LED temperature (°C),internal box temperature (°C),relative humidity of the measurement (%),span deviation,mass concentration of particles derived from Lorenz-Mie calculation of OPC scattering (μg/m³),mass concentration of particles derived from Lorenz-Mie calculation of OPC scattering (μg/m³),mass concentration of particles derived from Lorenz-Mie calculation of OPC scattering (μg/m³)
DateTimeUTC,F1_M11,P_M11,Q1_M11,Q2_M11,T1_M11,T2_M11,T3_M11,T4_M11,T5_M11,U1_M11,ZSPAN_M11,X2_M11,X0_M11,X1_M11
2023-12-15 14:00:00,SystemResetWarning,0835.0,5.00,000.00,018.7,017.8,000.0,027.2,020.0,15.0,0000.0,0001.30,0002.15,0001.15
2023-12-15 14:01:00,SystemResetWarning,0835.2,5.00,000.00,018.7,017.7,000.0,027.2,020.0,15.0,0000.0,0001.29,0002.11,0001.13
2023-12-15 14:02:00,SystemResetWarning,0835.2,4.99,000.00,018.7,017.7,000.0,027.2,020.0,14.9,0000.0,0001.26,0002.03,0001.12
2023-12-15 14:03:00,SystemResetWarning,0835.0,5.00,000.00,018.7,017.7,000.0,027.2,020.0,14.9,0000.0,0001.24,0002.02,0001.10
2023-12-15 14:04:00,SystemResetWarning,0834.7,5.00,000.00,018.7,017.7,000.0,027.2,020.0,15.1,0000.0,0001.24,0002.03,0001.09
2023-12-15 14:05:00,SystemResetWarning,0835.0,5.01,000.00,018.7,017.7,000.0,027.2,020.0,15.1,0000.0,0001.22,0002.01,0001.07
2023-12-15 14:06:00,SystemResetWarning,0834.9,5.00,000.00,018.7,017.7,000.0,027.2,020.0,15.0,0000.0,0001.22,0002.03,0001.06
2023-12-15 14:07:00,SystemResetWarning,0834.9,5.00,000.00,018.7,017.7,000.0,027.2,020.0,15.0,0000.0,0001.23,0002.07,0001.05
2023-12-15 14:08:00,SystemResetWarning,0834.9,5.00,000.00,018.7,017.7,000.0,027.2,020.0,14.8,0000.0,0001.21,0001.64,0001.05
2023-12-15 14:09:00,SystemResetWarning,0834.7,5.01,000.00,018.7,017.7,000.0,027.2,020.0,14.6,0000.0,0001.21,0001.58,0001.05
2023-12-15 14:10:00,SystemResetWarning,0834.7,5.00,000.00,018.7,017.7,000.0,027.2,020.0,14.4,0000.0,0001.25,0001.65,0001.05
2023-12-15 14:11:00,SystemResetWarning,0834.8,5.00,000.00,018.7,017.7,000.0,027.2,020.0,14.2,0000.0,0001.26,0001.74,0001.05
2023-12-15 14:12:00,SystemResetWarning,0834.9,4.99,000.00,018.7,017.7,000.0,027.2,020.0,14.2,0000.0,0001.24,0001.73,0001.05
2023-12-15 14:13:00,SystemResetWarning,0834.7,5.00,000.00,018.7,017.7,000.0,027.2,020.0,14.2,0000.0,0001.24,0001.73,0001.04
2023-12-15 14:14:00,SystemResetWarning,0835.0,5.00,000.00,018.7,017.7,000.0,027.2,020.0,14.2,0000.0,0001.21,0001.68,0001.03
2023-12-15 14:15:00,SystemResetWarning,0835.0,5.01,000.00,018.7,017.7,000.0,027.2,020.0,13.9,0000.0,0001.20,0001.67,0001.03
2023-12-15 14:16:00,SystemResetWarning,0835.0,5.01,000.00,018.7,017.7,000.0,027.2,020.0,13.7,0000.0,0001.19,0001.67,0001.01
2023-12-15 14:17:00,SystemResetWarning,0835.3,5.00,000.00,018.7,017.7,000.0,027.2,020.0,13.7,0000.0,0001.20,0001.69,0001.01
2023-12-15 14:18:00,SystemResetWarning,0835.2,5.00,000.00,018.7,017.6,000.0,027.2,020.0,13.7,0000.0,0001.16,0001.62,0000.99
2023-12-15 14:19:00,SystemResetWarning,0835.2,5.00,000.00,018.7,017.6,000.0,027.2,020.0,13.7,0000.0,0001.13,0001.56,0000.98
2023-12-15 14:20:00,SystemResetWarning,0835.4,5.00,000.00,018.7,017.6,000.0,027.2,020.0,13.7,0000.0,0001.13,0001.59,0000.97
2023-12-15 14:21:00,SystemResetWarning,0835.1,4.99,000.00,018.7,017.6,000.0,027.2,020.0,13.7,0000.0,0001.12,0001.60,0000.96
2023-12-15 14:22:00,SystemResetWarning,0835.1,5.00,000.00,018.7,017.6,000.0,027.2,020.0,13.8,0000.0,0001.08,0001.51,0000.94
2023-12-15 14:23:00,SystemResetWarning,0835.1,4.99,000.00,018.7,017.6,000.0,027.2,020.0,14.2,0000.0,0001.05,0001.44,0000.93
2023-12-15 14:24:00,SystemResetWarning,0834.9,5.00,000.00,018.7,017.6,000.0,027.2,020.0,14.9,0000.0,0001.05,0001.45,0000.92
2023-12-15 14:25:00,SystemResetWarning,0835.0,5.00,000.00,018.7,017.7,000.0,027.2,020.0,15.7,0000.0,0001.06,0001.50,0000.92
2023-12-15 14:26:00,SystemResetWarning,0835.0,5.00,000.00,018.7,017.7,000.0,027.2,020.0,16.0,0000.0,0001.08,0001.54,0000.93
2023-12-15 14:27:00,SystemResetWarning,0835.1,4.99,000.00,018.7,017.7,000.0,027.2,020.0,16.2,0000.0,0001.14,0001.71,0000.95
2023-12-15 14:28:00,SystemResetWarning,0835.1,4.99,000.00,018.7,017.7,000.0,027.1,020.2,16.2,0000.0,0001.20,0001.77,0001.01
2023-12-15 14:29:00,SystemResetWarning,0835.1,5.01,000.00,018.8,018.3,000.0,027.1,020.7,16.0,0000.0,0001.30,0001.88,0001.10
2023-12-15 14:30:00,SystemResetWarning,0835.2,5.00,000.00,019.0,019.0,000.0,027.2,020.9,15.9,0000.0,0001.41,0002.00,0001.20
2023-12-15 14:31:00,SystemResetWarning,0835.2,4.99,000.00,019.0,019.0,000.0,027.2,020.7,15.8,0000.0,0001.50,0002.07,0001.28
2023-12-15 14:32:00,SystemResetWarning,0835.2,4.99,000.00,019.1,018.9,000.0,027.2,020.5,15.8,0000.0,0001.57,0002.59,0001.36
2023-12-15 14:33:00,SystemResetWarning,0835.3,5.01,000.00,019.0,018.8,000.0,027.2,020.4,15.9,0000.0,0001.65,0003.39,0001.44
2023-12-15 14:34:00,SystemResetWarning,0835.3,5.01,000.00,019.0,018.7,000.0,027.2,020.3,15.9,0000.0,0001.73,0003.49,0001.51
2023-12-15 14:35:00,SystemResetWarning,0835.3,5.01,000.00,019.0,018.6,000.0,027.2,020.2,15.9,0000.0,0001.82,0003.59,0001.60
2023-12-15 14:36:00,SystemResetWarning,0835.3,5.00,000.00,019.0,018.5,000.0,027.2,020.2,16.0,0000.0,0001.90,0003.73,0001.67
2023-12-15 14:37:00,SystemResetWarning,0835.3,5.00,000.00,019.0,018.4,000.0,027.2,020.2,16.0,0000.0,0001.99,0003.84,0001.74
2023-12-15 14:38:00,SystemResetWarning,0835.3,5.00,000.00,019.0,018.4,000.0,027.2,020.1,16.0,0000.0,0002.03,0003.85,0001.81
2023-12-15 14:39:00,SystemResetWarning,0835.3,5.00,000.00,018.9,018.3,000.0,027.2,020.1,16.0,0000.0,0002.07,0004.07,0001.84
2023-12-15 14:40:00,SystemResetWarning,0835.2,5.00,000.00,018.9,018.3,000.0,027.2,020.1,16.0,0000.0,0002.12,0004.63,0001.85
2023-12-15 14:41:00,SystemResetWarning,0835.3,5.00,000.00,018.9,018.2,000.0,027.2,020.1,16.0,0000.0,0002.11,0004.63,0001.84
2023-12-15 14:42:00,SystemResetWarning,0835.2,4.99,000.00,018.9,018.2,000.0,027.2,020.0,16.0,0000.0,0002.12,0004.74,0001.85
2023-12-15 14:43:00,SystemResetWarning,0835.4,4.99,000.00,018.9,018.1,000.0,027.2,020.0,16.0,0000.0,0002.12,0004.48,0001.85
2023-12-15 14:44:00,SystemResetWarning,0835.5,5.01,000.00,018.9,018.1,000.0,027.2,020.0,16.0,0000.0,0002.17,0003.67,0001.86
2023-12-15 14:45:00,SystemResetWarning,0835.4,5.00,000.00,018.9,018.1,000.0,027.2,020.0,16.1,0000.0,0002.19,0003.72,0001.87
2023-12-15 14:46:00,SystemResetWarning,0835.4,5.01,000.00,018.8,018.1,000.0,027.2,020.0,16.0,0000.0,0002.19,0003.85,0001.87
2023-12-15 14:47:00,SystemResetWarning,0835.4,5.00,000.00,018.8,018.1,000.0,027.2,020.0,15.8,0000.0,0002.22,0003.92,0001.88
2023-12-15 14:48:00,SystemResetWarning,0835.4,5.00,000.00,018.8,018.0,000.0,027.2,020.0,15.6,0000.0,0002.21,0003.95,0001.88
2023-12-15 14:49:00,SystemResetWarning,0835.4,5.00,000.00,018.8,018.0,000.0,027.2,020.0,15.2,0000.0,0002.22,0003.97,0001.86
2023-12-15 14:50:00,SystemResetWarning,0835.4,5.00,000.00,018.8,018.0,000.0,027.2,020.0,15.0,0000.0,0002.17,0003.85,0001.82
2023-12-15 14:51:00,SystemResetWarning,0835.4,4.99,000.00,018.8,018.0,000.0,027.2,020.0,15.0,0000.0,0002.09,0003.19,0001.78
2023-12-15 14:52:00,SystemResetWarning,0835.5,4.99,000.00,018.8,018.0,000.0,027.2,020.0,15.0,0000.0,0002.05,0003.13,0001.75
2023-12-15 14:53:00,SystemResetWarning,0835.5,5.01,000.00,018.8,018.0,000.0,027.2,020.0,14.9,0000.0,0001.99,0002.96,0001.70
2023-12-15 14:54:00,SystemResetWarning,0835.5,5.00,000.00,018.8,018.0,000.0,027.2,020.0,15.1,0000.0,0001.93,0002.86,0001.65
2023-12-15 14:55:00,SystemResetWarning,0835.5,5.01,000.00,018.8,018.0,000.0,027.2,020.0,15.7,0000.0,0001.84,0002.90,0001.59
2023-12-15 14:56:00,SystemResetWarning,0835.5,5.01,000.00,018.8,018.0,000.0,027.1,020.0,16.2,0000.0,0001.82,0002.94,0001.54
2023-12-15 14:57:00,SystemResetWarning,0835.5,5.00,000.00,018.8,018.0,000.0,027.2,020.0,15.7,0000.0,0001.78,0002.80,0001.50
2023-12-15 14:58:00,SystemResetWarning,0835.5,5.00,000.00,018.8,017.9,000.0,027.2,020.0,15.4,0000.0,0001.74,0003.00,0001.48
2023-12-15 14:59:00,SystemResetWarning,0835.5,5.00,000.00,018.8,017.9,000.0,027.2,020.0,15.4,0000.0,0001.69,0003.15,0001.45
